Time,TemperatureF,DewpointF,PressureIn,WindDirection,WindDirectionDegrees,WindSpeedMPH,WindSpeedGustMPH,Humidity,HourlyPrecipIn,Conditions,Clouds,dailyrainin,SolarRadiationWatts/m^2,SoftwareType,DateUTC
2013-01-19 00:12:00,17.0,14.0,-100.00,North,11,1.0,5.0,89,0.00,,,0.00,0.000000,,2013-01-19 09:12:00,
2013-01-19 00:22:00,17.0,14.0,-100.00,North,11,1.0,5.0,89,0.00,,,0.00,0.000000,,2013-01-19 09:22:00,
2013-01-19 00:32:00,17.0,14.0,-100.00,North,11,1.0,5.0,89,0.00,,,0.00,0.000000,,2013-01-19 09:32:00,
2013-01-19 00:42:00,17.0,14.0,-100.00,North,11,1.0,5.0,89,0.00,,,0.00,0.000000,,2013-01-19 09:42:00,
2013-01-19 00:52:00,17.0,14.0,-100.00,North,11,1.0,5.0,89,0.00,,,0.00,0.000000,,2013-01-19 09:52:00,
2013-01-19 01:12:00,18.0,15.0,-100.00,WNW,286,2.0,6.0,86,0.00,,,0.00,0.000000,,2013-01-19 10:12:00,
2013-01-19 01:22:00,18.0,15.0,-100.00,WNW,286,2.0,6.0,86,0.00,,,0.00,0.000000,,2013-01-19 10:22:00,
2013-01-19 01:32:00,18.0,15.0,-100.00,WNW,286,2.0,6.0,86,0.00,,,0.00,0.000000,,2013-01-19 10:32:00,
2013-01-19 01:42:00,18.0,15.0,-100.00,WNW,286,2.0,6.0,86,0.00,,,0.00,0.000000,,2013-01-19 10:42:00,
2013-01-19 01:52:00,18.0,15.0,-100.00,WNW,286,2.0,6.0,86,0.00,,,0.00,0.000000,,2013-01-19 10:52:00,
2013-01-19 03:52:00,23.0,18.0,-100.00,North,355,3.0,9.0,82,0.00,,,0.00,0.000000,,2013-01-19 12:52:00,
2013-01-19 04:12:00,27.0,21.0,-100.00,North,350,6.0,10.0,79,0.00,,,0.00,0.000000,,2013-01-19 13:12:00,
2013-01-19 04:22:00,27.0,21.0,-100.00,North,350,6.0,10.0,79,0.00,,,0.00,0.000000,,2013-01-19 13:22:00,
2013-01-19 04:33:00,27.0,21.0,-100.00,North,350,6.0,10.0,79,0.00,,,0.00,0.000000,,2013-01-19 13:33:00,
2013-01-19 04:42:00,27.0,21.0,-100.00,North,350,6.0,10.0,79,0.00,,,0.00,0.000000,,2013-01-19 13:42:00,
2013-01-19 04:52:00,27.0,21.0,-100.00,North,350,6.0,10.0,79,0.00,,,0.00,0.000000,,2013-01-19 13:52:00,
2013-01-19 05:12:00,28.0,22.0,-100.00,North,5,6.0,11.0,77,0.00,,,0.00,0.000000,,2013-01-19 14:12:00,
2013-01-19 05:22:00,28.0,22.0,-100.00,North,5,6.0,11.0,77,0.00,,,0.00,0.000000,,2013-01-19 14:22:00,
2013-01-19 05:33:00,28.0,22.0,-100.00,North,5,6.0,11.0,77,0.00,,,0.00,0.000000,,2013-01-19 14:33:00,
2013-01-19 05:42:00,28.0,22.0,-100.00,North,5,6.0,11.0,77,0.00,,,0.00,0.000000,,2013-01-19 14:42:00,
2013-01-19 05:52:00,28.0,22.0,-100.00,North,5,6.0,11.0,77,0.00,,,0.00,0.000000,,2013-01-19 14:52:00,
2013-01-19 06:12:00,29.0,22.0,-100.00,North,4,7.0,14.0,75,0.00,,,0.00,0.000000,,2013-01-19 15:12:00,
2013-01-19 06:22:00,29.0,22.0,-100.00,North,4,7.0,14.0,75,0.00,,,0.00,0.000000,,2013-01-19 15:22:00,
2013-01-19 06:33:00,29.0,22.0,-100.00,North,4,7.0,14.0,75,0.00,,,0.00,0.000000,,2013-01-19 15:33:00,
2013-01-19 06:42:00,29.0,22.0,-100.00,North,4,7.0,14.0,75,0.00,,,0.00,0.000000,,2013-01-19 15:42:00,
2013-01-19 06:52:00,29.0,22.0,-100.00,North,4,7.0,14.0,75,0.00,,,0.00,0.000000,,2013-01-19 15:52:00,
2013-01-19 07:12:00,30.0,23.0,-100.00,NNE,13,6.0,13.0,75,0.00,,,0.00,0.000000,,2013-01-19 16:12:00,
2013-01-19 07:23:00,30.0,23.0,-100.00,NNE,13,6.0,13.0,75,0.00,,,0.00,0.000000,,2013-01-19 16:23:00,
2013-01-19 07:33:00,30.0,23.0,-100.00,NNE,13,6.0,13.0,75,0.00,,,0.00,0.000000,,2013-01-19 16:33:00,
2013-01-19 07:42:00,30.0,23.0,-100.00,NNE,13,6.0,13.0,75,0.00,,,0.00,0.000000,,2013-01-19 16:42:00,
2013-01-19 07:53:00,30.0,23.0,-100.00,NNE,13,6.0,13.0,75,0.00,,,0.00,0.000000,,2013-01-19 16:53:00,
2013-01-19 08:16:00,30.0,23.0,-100.00,North,4,5.0,12.0,76,0.00,,,0.00,0.000000,,2013-01-19 17:16:00,
2013-01-19 08:27:00,30.0,23.0,-100.00,North,4,5.0,12.0,76,0.00,,,0.00,0.000000,,2013-01-19 17:27:00,
2013-01-19 08:44:00,30.0,23.0,-100.00,North,4,5.0,12.0,76,0.00,,,0.00,0.000000,,2013-01-19 17:44:00,
2013-01-19 08:53:00,30.0,23.0,-100.00,North,4,5.0,12.0,76,0.00,,,0.00,0.000000,,2013-01-19 17:53:00,
2013-01-19 09:13:00,31.0,24.0,-100.00,North,6,7.0,13.0,76,0.00,,,-99.99,0.000000,,2013-01-19 18:13:00,
2013-01-19 09:25:00,31.0,24.0,-100.00,North,6,7.0,13.0,76,0.00,,,-99.99,0.000000,,2013-01-19 18:25:00,
2013-01-19 09:34:00,31.0,24.0,-100.00,North,6,7.0,13.0,76,0.00,,,-99.99,0.000000,,2013-01-19 18:34:00,
2013-01-19 09:44:00,31.0,24.0,-100.00,North,6,7.0,13.0,76,0.00,,,-99.99,0.000000,,2013-01-19 18:44:00,
2013-01-19 09:53:00,31.0,24.0,-100.00,North,6,7.0,13.0,76,0.00,,,-99.99,0.000000,,2013-01-19 18:53:00,
2013-01-19 10:17:00,31.0,25.0,-100.00,NNE,16,9.0,18.0,77,0.00,,,-99.99,0.000000,,2013-01-19 19:17:00,
2013-01-19 10:27:00,31.0,25.0,-100.00,NNE,16,9.0,18.0,77,0.00,,,-99.99,0.000000,,2013-01-19 19:27:00,
2013-01-19 10:37:00,31.0,25.0,-100.00,NNE,16,9.0,18.0,77,0.00,,,-99.99,0.000000,,2013-01-19 19:37:00,
2013-01-19 10:44:00,31.0,25.0,-100.00,NNE,16,9.0,18.0,77,0.00,,,-99.99,0.000000,,2013-01-19 19:44:00,
2013-01-19 10:53:00,31.0,25.0,-100.00,NNE,16,9.0,18.0,77,0.00,,,-99.99,0.000000,,2013-01-19 19:53:00,
2013-01-19 11:24:00,33.0,26.0,-100.00,North,5,7.0,16.0,74,0.00,,,0.00,2.000000,,2013-01-19 20:24:00,
2013-01-19 11:35:00,33.0,26.0,-100.00,North,5,7.0,16.0,74,0.00,,,0.00,2.000000,,2013-01-19 20:35:00,
2013-01-19 11:44:00,33.0,26.0,-100.00,North,5,7.0,16.0,74,0.00,,,0.00,2.000000,,2013-01-19 20:44:00,
2013-01-19 12:14:00,33.0,25.0,-100.00,NNE,17,8.0,18.0,73,0.00,,,0.00,13.000000,,2013-01-19 21:14:00,
2013-01-19 12:24:00,33.0,25.0,-100.00,NNE,17,8.0,18.0,73,0.00,,,0.00,13.000000,,2013-01-19 21:24:00,
2013-01-19 12:38:00,33.0,25.0,-100.00,NNE,17,8.0,18.0,73,0.00,,,0.00,13.000000,,2013-01-19 21:38:00,
2013-01-19 12:46:00,33.0,25.0,-100.00,NNE,17,8.0,18.0,73,0.00,,,0.00,13.000000,,2013-01-19 21:46:00,
2013-01-19 12:53:00,33.0,25.0,-100.00,NNE,17,8.0,18.0,73,0.00,,,0.00,13.000000,,2013-01-19 21:53:00,
2013-01-19 13:15:00,33.0,27.0,-100.00,NNE,15,11.0,20.0,77,0.00,,,0.00,35.000000,,2013-01-19 22:15:00,
2013-01-19 13:25:00,33.0,27.0,-100.00,NNE,15,11.0,20.0,77,0.00,,,0.00,35.000000,,2013-01-19 22:25:00,
2013-01-19 13:34:00,33.0,27.0,-100.00,NNE,15,11.0,20.0,77,0.00,,,0.00,35.000000,,2013-01-19 22:34:00,
2013-01-19 13:45:00,33.0,27.0,-100.00,NNE,15,11.0,20.0,77,0.00,,,0.00,35.000000,,2013-01-19 22:45:00,
2013-01-19 13:53:00,33.0,27.0,-100.00,NNE,15,11.0,20.0,77,0.00,,,0.00,35.000000,,2013-01-19 22:53:00,
2013-01-19 14:14:00,33.0,27.0,-100.00,NNE,13,9.0,19.0,77,0.00,,,0.00,21.000000,,2013-01-19 23:14:00,
2013-01-19 14:24:00,33.0,27.0,-100.00,NNE,13,9.0,19.0,77,0.00,,,0.00,21.000000,,2013-01-19 23:24:00,
2013-01-19 14:33:00,33.0,27.0,-100.00,NNE,13,9.0,19.0,77,0.00,,,0.00,21.000000,,2013-01-19 23:33:00,
2013-01-19 14:44:00,33.0,27.0,-100.00,NNE,13,9.0,19.0,77,0.00,,,0.00,21.000000,,2013-01-19 23:44:00,
2013-01-19 15:14:00,35.0,27.0,-100.00,NNE,31,12.0,25.0,71,0.00,,,0.00,33.000000,,2013-01-20 00:14:00,
2013-01-19 15:24:00,35.0,27.0,-100.00,NNE,31,12.0,25.0,71,0.00,,,0.00,33.000000,,2013-01-20 00:24:00,
2013-01-19 15:34:00,35.0,27.0,-100.00,NNE,31,12.0,25.0,71,0.00,,,0.00,33.000000,,2013-01-20 00:34:00,
2013-01-19 15:44:00,35.0,27.0,-100.00,NNE,31,12.0,25.0,71,0.00,,,0.00,33.000000,,2013-01-20 00:44:00,
2013-01-19 15:53:00,35.0,27.0,-100.00,NNE,31,12.0,25.0,71,0.00,,,0.00,33.000000,,2013-01-20 00:53:00,
2013-01-19 16:17:00,35.0,27.0,-100.00,NNE,31,10.0,22.0,71,0.00,,,0.00,22.000000,,2013-01-20 01:17:00,
2013-01-19 16:24:00,35.0,27.0,-100.00,NNE,31,10.0,22.0,71,0.00,,,0.00,22.000000,,2013-01-20 01:24:00,
2013-01-19 16:34:00,35.0,27.0,-100.00,NNE,31,10.0,22.0,71,0.00,,,0.00,22.000000,,2013-01-20 01:34:00,
2013-01-19 16:44:00,35.0,27.0,-100.00,NNE,31,10.0,22.0,71,0.00,,,0.00,22.000000,,2013-01-20 01:44:00,
2013-01-19 16:53:00,35.0,27.0,-100.00,NNE,31,10.0,22.0,71,0.00,,,0.00,22.000000,,2013-01-20 01:53:00,
2013-01-19 17:14:00,36.0,28.0,-100.00,NNE,28,12.0,26.0,72,0.00,,,0.00,6.000000,,2013-01-20 02:14:00,
2013-01-19 17:34:00,36.0,28.0,-100.00,NNE,28,12.0,26.0,72,0.00,,,0.00,6.000000,,2013-01-20 02:34:00,
2013-01-19 17:43:00,36.0,28.0,-100.00,NNE,28,12.0,26.0,72,0.00,,,0.00,6.000000,,2013-01-20 02:43:00,
2013-01-19 17:53:00,36.0,28.0,-100.00,NNE,28,12.0,26.0,72,0.00,,,0.00,6.000000,,2013-01-20 02:53:00,
2013-01-19 18:14:00,37.0,28.0,-100.00,NNE,33,11.0,28.0,71,0.00,,,0.00,0.000000,,2013-01-20 03:14:00,
2013-01-19 18:24:00,37.0,28.0,-100.00,NNE,33,11.0,28.0,71,0.00,,,0.00,0.000000,,2013-01-20 03:24:00,
2013-01-19 18:35:00,37.0,28.0,-100.00,NNE,33,11.0,28.0,71,0.00,,,0.00,0.000000,,2013-01-20 03:35:00,
2013-01-19 18:44:00,37.0,28.0,-100.00,NNE,33,11.0,28.0,71,0.00,,,0.00,0.000000,,2013-01-20 03:44:00,
2013-01-19 18:52:00,37.0,28.0,-100.00,NNE,33,11.0,28.0,71,0.00,,,0.00,0.000000,,2013-01-20 03:52:00,
2013-01-19 19:24:00,37.0,26.0,-100.00,NNE,31,11.0,24.0,65,0.00,,,-99.99,0.000000,,2013-01-20 04:24:00,
2013-01-19 19:34:00,37.0,26.0,-100.00,NNE,31,11.0,24.0,65,0.00,,,-99.99,0.000000,,2013-01-20 04:34:00,
2013-01-19 19:43:00,37.0,26.0,-100.00,NNE,31,11.0,24.0,65,0.00,,,-99.99,0.000000,,2013-01-20 04:43:00,
2013-01-19 19:53:00,37.0,26.0,-100.00,NNE,31,11.0,24.0,65,0.00,,,-99.99,0.000000,,2013-01-20 04:53:00,
2013-01-19 20:12:00,35.0,31.0,-100.00,NE,41,11.0,24.0,84,0.00,,,0.00,0.000000,,2013-01-20 05:12:00,
2013-01-19 20:22:00,35.0,31.0,-100.00,NE,41,11.0,24.0,84,0.00,,,0.00,0.000000,,2013-01-20 05:22:00,
2013-01-19 20:32:00,35.0,31.0,-100.00,NE,41,11.0,24.0,84,0.00,,,0.00,0.000000,,2013-01-20 05:32:00,
2013-01-19 20:42:00,35.0,31.0,-100.00,NE,41,11.0,24.0,84,0.00,,,0.00,0.000000,,2013-01-20 05:42:00,
2013-01-19 20:52:00,35.0,31.0,-100.00,NE,41,11.0,24.0,84,0.00,,,0.00,0.000000,,2013-01-20 05:52:00,
2013-01-19 21:12:00,35.0,31.0,-100.00,NE,34,12.0,22.0,84,0.00,,,0.00,0.000000,,2013-01-20 06:12:00,
2013-01-19 21:22:00,35.0,31.0,-100.00,NE,34,12.0,22.0,84,0.00,,,0.00,0.000000,,2013-01-20 06:22:00,
2013-01-19 21:33:00,35.0,31.0,-100.00,NE,34,12.0,22.0,84,0.00,,,0.00,0.000000,,2013-01-20 06:33:00,
2013-01-19 21:42:00,35.0,31.0,-100.00,NE,34,12.0,22.0,84,0.00,,,0.00,0.000000,,2013-01-20 06:42:00,
2013-01-19 21:52:00,35.0,31.0,-100.00,NE,34,12.0,22.0,84,0.00,,,0.00,0.000000,,2013-01-20 06:52:00,
2013-01-19 22:12:00,35.0,33.0,-100.00,NNE,30,9.0,24.0,92,0.03,,,0.03,0.000000,,2013-01-20 07:12:00,
2013-01-19 22:22:00,35.0,33.0,-100.00,NNE,30,9.0,24.0,92,0.03,,,0.03,0.000000,,2013-01-20 07:22:00,
2013-01-19 22:32:00,35.0,33.0,-100.00,NNE,30,9.0,24.0,92,0.03,,,0.03,0.000000,,2013-01-20 07:32:00,
2013-01-19 22:42:00,35.0,33.0,-100.00,NNE,30,9.0,24.0,92,0.03,,,0.03,0.000000,,2013-01-20 07:42:00,
2013-01-19 22:52:00,35.0,33.0,-100.00,NNE,30,9.0,24.0,92,0.03,,,0.03,0.000000,,2013-01-20 07:52:00,
2013-01-19 23:22:00,35.0,33.0,-100.00,North,7,10.0,16.0,91,0.08,,,0.11,0.000000,,2013-01-20 08:22:00,
2013-01-19 23:32:00,35.0,33.0,-100.00,North,7,10.0,16.0,91,0.08,,,0.11,0.000000,,2013-01-20 08:32:00,
2013-01-19 23:42:00,35.0,33.0,-100.00,North,7,10.0,16.0,91,0.08,,,0.11,0.000000,,2013-01-20 08:42:00,
2013-01-19 23:52:00,35.0,33.0,-100.00,North,7,10.0,16.0,91,0.08,,,0.11,0.000000,,2013-01-20 08:52:00,